Regional Weather Roundup
Issued by NWS

Home | Current Version | Previous Version | Text Only | Print | Product List | Glossary On
Versions: 1 2 3 4 5 6 7 8 9 10 11 12 13 14 15 16 17 18 19 20 21 22 23 24 25 26 27 28 29 30 31 32 33 34 35 36 37 38 39 40 41 42 43 44 45 46 47 48 49 50
122
ASUS46 KSEW 251310
RWRWA

WASHINGTON REGIONAL WEATHER ROUNDUP
NATIONAL WEATHER SERVICE SEATTLE WA
600 AM PDT MON JUL 25 2016

NOTE:"FAIR" INDICATES FEW OR NO CLOUDS BELOW 12,000 FEET WITH NO
SIGNIFICANT WEATHER AND/OR OBSTRUCTIONS TO VISIBILITY.

WAZ505-507>509-251400-
SEATTLE, TACOMA, EVERETT, AND VICINITY

CITY           SKY/WX    TMP DP  RH WIND       PRES   REMARKS
EVERETT        CLEAR     57  54  89 CALM      30.07R
BOEING FIELD   PTCLDY    62  54  74 CALM      30.06R
RENTON         PTCLDY    60  56  86 CALM      30.06R
SEATAC AIRPORT PTCLDY    62  56  80 NE6       30.07S
JBLM-MCCHORD   PTCLDY    53  53 100 CALM      30.06S
PUYALLUP         N/A     55  55 100 CALM      30.07R
BREMERTON      PTCLDY    54  52  94 CALM      30.09R
JBLM-FT LEWIS  PTCLDY    54  54  99 SE6       30.06R
TACOMA NARROWS PTCLDY    58  53  84 CALM      30.07R
$$

WAZ001-503-506-510-514-515-251400-
NORTH INTERIOR

CITY           SKY/WX    TMP DP  RH WIND       PRES   REMARKS
BELLINGHAM     CLEAR     60  56  86 S5        30.03S
FRIDAY HARBOR  CLEAR     52  51  97 CALM      30.05R
EASTSOUND      CLEAR     57  55  94 S5        30.02S
PORT ANGELES   MOCLDY    55  54  96 CALM      30.06R
EDIZ HOOK      CLOUDY    54  54  97 W7        30.05S
PORT TOWNSEND  FAIR      52  52 100 CALM      30.06S
NAS WHIDBEY    MOCLDY    55  51  86 SW5       30.09R
ARLINGTON      CLEAR     54  45  71 CALM      30.08R
BURLINGTON     CLEAR     55  54  94 CALM      30.05S
$$

WAZ020-022-039-040-504-511-512-251400-
SOUTHWEST INTERIOR

CITY           SKY/WX    TMP DP  RH WIND       PRES   REMARKS
SHELTON        CLOUDY    57  55  93 W9        30.05R FOG
OLYMPIA        PTCLDY    53  51  93 CALM      30.06R
CHEHALIS       FAIR      55  55 100 CALM      30.07R
KELSO          CLOUDY    61  58  90 N3        30.08R
VANCOUVER      CLEAR     61  56  83 VRB3      30.05R
SCAPPOOSE, OR  PTCLDY    56  53  90 CALM      30.05R
PORTLAND, OR   PTCLDY    62  56  80 N5        30.06R
$$

WAZ021-516-517-251400-
WASHINGTON COAST

CITY           SKY/WX    TMP DP  RH WIND       PRES   REMARKS
FORKS          CLOUDY    58  58 100 CALM      30.08R FOG
HOQUIAM        CLOUDY    58  58 100 CALM      30.08R
ASTORIA, OR    CLOUDY    60  57  89 NW12      30.09R
$$

WAZ019-023-024-040-518-519-251400-
CASCADE MOUNTAINS AND COLUMBIA GORGE

CITY           SKY/WX    TMP DP  RH WIND       PRES   REMARKS
STAMPEDE PASS  CLEAR     55  50  83 SW7       30.14S
TROUTDALE, OR  CLEAR     61  57  87 CALM      30.05R
THE DALLES, OR CLEAR     66  54  65 NW8       29.96R
$$

WAZ026-027-041>044-520-521-251400-
EAST SLOPES

CITY           SKY/WX    TMP DP  RH WIND       PRES   REMARKS
OMAK           CLEAR     61  48  62 N6        30.00R
WENATCHEE      CLEAR     67  53  61 NW8       29.99R
ELLENSBURG     CLEAR     57  50  77 E3        30.03R
YAKIMA         CLEAR     64  51  62 SW9       29.99R
$$

WAZ028-034-035-251400-
COLUMBIA BASIN

CITY           SKY/WX    TMP DP  RH WIND       PRES   REMARKS
EPHRATA        CLEAR     62  50  64 N3        29.97R
MOSES LAKE     CLEAR     59  47  64 N6        29.98R
PASCO          CLEAR     54  50  86 N3        29.95R
HERMISTON, OR  CLEAR     56  45  66 MISG      29.96R
$$

WAZ036>038-251400-
NORTHEAST WASHINGTON

CITY           SKY/WX    TMP DP  RH WIND       PRES   REMARKS
SPOKANE GEIGER CLEAR     62  51  67 E5        30.05R
SPOKANE FELTS  CLEAR     57  52  83 NE3       30.05R
FAIRCHILD AFB  CLEAR     60  50  70 E7        30.05R
COEURDALENE,ID CLEAR     57  52  82 NE3       30.04R
DEER PARK      CLEAR     52  48  86 CALM      30.05R
$$

WAZ029>033-251400-
SOUTHEAST WASHINGTON

CITY           SKY/WX    TMP DP  RH WIND       PRES   REMARKS
PULLMAN        CLEAR     52  45  77 CALM      30.06R
LEWISTON, ID   CLEAR     64  48  56 CALM      30.01R
WALLA WALLA    CLEAR     64  47  53 E6        29.97R
PENDLETON, OR  CLEAR     61  46  57 E7        29.99R
$$




USA.gov is the U.S. government's official web portal to all federal, state and local government web resources and services.